Wind_Speed
2 2 1 2 2 3 2 2 2 1 2 4 2 3 0 0 4 4 3 1 2 1 0 2 2 3 1 3 4 6 5 6 5 5 3 3 1 3 11 17 13 17 26 29 26 27 29 28 27 25 24 22 21 20 18 17 16 15 15 14 14 13 12 11 10 10 9 9 8 8 7 7 7 6 6 6 6 6 6 6 6 5 5 5 5 4 4 5 5 4 3 3 2 2 1 1 1
1 1 1 0 2 2 1 1 4 1 3 4 1 2 2 1 3 3 5 5 4 3 1 2 3 4 4 4 5 7 6 7 6 5 2 2 3 3 12 17 15 18 25 28 25 24 24 25 28 26 24 24 22 21 19 18 16 16 16 15 15 13 12 11 10 10 10 9 9 8 8 8 7 7 7 6 6 6 5 5 6 6 5 5 5 5 5 5 4 3 3 2 2 2 1 2 2
1 1 0 1 1 1 1 1 4 2 4 4 2 1 1 2 2 4 5 5 5 3 1 2 3 4 5 6 5 5 4 3 5 5 2 5 4 2 11 17 16 20 24 28 24 21 21 22 28 27 25 25 23 22 20 20 18 17 16 15 15 14 13 12 11 10 10 10 9 9 9 9 8 8 8 7 6 6 6 5 5 6 6 6 6 6 6 5 4 2 2 2 3 3 2 3 4
1 1 1 3 2 1 2 2 3 3 4 3 2 2 1 3 3 5 4 4 4 1 3 2 2 2 6 7 3 3 5 3 3 4 2 2 3 3 10 18 17 20 25 29 25 20 21 23 28 27 25 25 23 23 21 21 20 18 17 16 15 14 14 13 12 11 11 11 10 10 10 10 9 9 8 7 7 6 5 5 5 6 6 6 7 6 5 4 3 3 2 3 5 4 4 5 5
2 2 1 2 2 1 1 1 1 3 3 2 4 2 1 3 5 7 5 5 5 4 4 3 2 2 4 5 2 2 3 1 2 4 3 1 4 4 11 20 17 20 26 29 24 19 20 23 28 27 25 25 23 22 21 21 20 19 18 17 16 15 15 14 13 12 12 12 12 12 11 11 10 9 8 7 8 7 5 5 5 5 6 6 6 5 4 3 3 3 2 5 6 5 6 6 7
3 4 3 2 0 1 1 2 2 4 2 2 6 5 4 4 6 9 8 6 3 3 3 4 3 1 4 2 3 4 2 1 1 4 5 3 4 4 12 21 19 20 25 26 21 19 20 23 29 28 26 25 23 22 22 22 20 19 18 17 17 17 16 16 14 14 13 12 13 13 12 11 10 9 8 7 10 9 7 6 5 5 6 5 5 4 3 3 3 3 3 7 7 7 8 8 8
2 2 3 3 2 1 3 4 4 5 1 0 6 8 9 8 5 8 10 6 1 3 3 3 2 4 4 1 3 6 8 7 3 3 6 5 4 4 12 22 20 20 23 22 19 19 19 23 30 29 26 25 23 22 22 23 20 19 20 18 18 18 18 17 16 15 14 14 14 14 13 11 10 9 8 8 11 10 7 8 7 7 7 5 6 5 4 4 4 4 4 6 8 8 8 8 8
1 0 1 2 2 1 4 4 4 4 1 1 6 8 11 10 6 8 9 5 2 2 3 4 2 4 1 2 3 3 8 11 9 9 8 7 7 5 14 23 21 21 23 21 18 18 21 25 29 28 26 24 22 22 22 22 20 19 19 18 18 19 19 19 17 16 16 15 14 13 12 11 10 9 8 9 12 11 8 9 9 8 8 6 7 7 6 6 5 6 5 7 8 7 7 6 5
2 1 1 2 2 2 3 4 4 4 4 4 6 9 11 9 6 7 8 5 4 3 3 3 3 5 2 0 6 1 4 9 11 13 12 11 9 7 14 23 22 22 23 21 18 18 22 27 29 27 25 24 23 22 22 21 19 18 18 17 18 18 19 19 18 17 16 15 14 13 12 11 10 9 10 11 12 12 10 11 10 9 9 7 7 7 8 7 7 7 6 8 6 5 4 2 2
1 2 1 1 1 3 4 4 3 2 4 4 7 11 11 7 4 5 7 5 3 3 1 1 4 7 5 5 7 2 3 6 7 9 11 12 10 9 14 22 22 22 23 22 20 19 21 27 29 27 25 24 23 23 22 21 19 18 18 18 18 18 18 18 18 17 16 15 15 15 13 12 11 11 12 11 10 12 11 12 11 10 9 9 8 8 8 8 8 7 8 6 3 2 1 1 1
1 1 0 1 2 4 4 4 4 3 3 5 8 9 8 4 3 4 5 5 3 4 1 3 3 7 6 7 6 3 5 7 6 6 8 11 11 10 14 20 22 21 23 23 21 19 19 26 30 27 27 25 24 24 22 21 20 19 20 19 18 18 18 18 17 17 16 16 16 15 14 15 14 14 14 11 10 11 11 11 11 10 10 9 9 8 8 8 8 8 7 4 3 3 3 2 2
2 2 1 3 2 3 3 4 5 7 6 5 4 1 1 2 3 3 3 5 3 5 5 7 2 2 5 5 3 3 5 7 6 7 8 10 11 10 13 19 22 21 22 22 21 22 20 23 28 29 28 27 25 24 23 22 21 21 21 20 19 19 19 19 18 18 17 17 17 16 15 16 16 16 15 12 11 11 11 11 11 11 11 11 10 9 9 9 10 9 6 5 4 4 3 3 2
2 2 2 2 1 2 2 4 4 6 7 3 0 3 1 3 4 3 2 4 3 5 4 7 3 1 6 6 3 5 4 4 7 8 8 9 12 12 14 19 22 22 21 20 22 26 25 23 24 27 29 29 27 26 25 24 24 23 23 22 21 20 20 20 20 20 20 19 18 18 18 17 18 18 16 14 13 13 12 12 12 13 13 12 11 10 10 10 10 8 7 6 5 4 3 2 1
1 1 2 1 0 2 2 4 3 4 5 1 1 3 2 4 2 2 3 6 5 3 2 3 3 3 7 5 4 4 1 2 5 7 8 10 12 12 14 18 22 22 20 21 25 28 31 28 22 23 27 29 28 27 27 27 27 26 25 25 24 23 22 22 21 21 21 21 20 19 19 19 20 20 18 16 15 14 14 13 13 13 13 13 12 11 11 12 10 8 7 6 5 4 3 1 1
1 2 1 1 1 2 3 3 2 3 4 1 1 3 2 4 2 2 4 8 6 1 2 2 4 3 3 4 6 1 3 0 3 5 8 10 11 13 15 18 21 23 22 23 27 30 33 33 26 23 23 25 25 24 24 27 28 28 27 27 26 25 24 24 23 22 21 21 21 20 20 19 20 20 19 17 16 15 15 14 13 13 14 14 13 13 14 13 10 9 8 7 6 5 3 1 0
0 2 1 2 2 2 2 2 2 4 4 1 2 2 3 3 3 3 2 4 6 1 2 4 6 5 4 7 7 4 1 3 2 4 6 8 10 12 13 16 18 22 25 24 26 32 34 35 34 30 25 23 23 23 22 24 28 30 29 28 28 27 26 25 24 24 23 22 22 23 23 22 21 21 20 18 17 17 16 16 14 14 14 14 15 15 15 13 11 10 9 8 7 5 3 1 0
1 2 3 3 3 3 2 4 4 2 3 1 3 3 5 2 3 3 2 3 10 6 5 7 6 7 9 10 7 4 5 6 5 5 5 7 8 9 10 13 15 19 27 29 29 33 35 36 37 36 32 27 24 24 22 22 27 30 30 29 29 28 28 26 26 26 25 25 24 24 25 24 22 22 21 18 17 17 17 17 16 15 15 15 16 16 15 13 12 11 10 9 7 5 3 2 2
3 3 3 4 4 4 4 7 6 1 5 5 2 3 5 6 2 1 2 7 11 11 10 10 10 12 15 15 14 15 13 9 9 7 7 8 7 9 9 12 15 17 24 30 33 35 37 37 38 37 37 34 27 25 25 25 26 30 30 28 29 29 29 27 27 28 27 27 27 27 25 24 22 19 19 18 16 17 17 18 17 16 15 16 17 17 16 15 14 13 11 9 7 5 4 3 3
4 2 3 5 4 3 4 7 6 4 7 7 4 3 4 6 3 1 5 11 10 13 14 10 12 16 17 17 20 21 17 13 11 10 11 12 11 12 12 12 15 17 21 28 34 37 39 39 39 39 39 39 33 28 31 34 30 31 29 25 25 28 30 29 27 27 28 29 30 29 24 23 23 18 18 18 16 16 17 18 18 18 17 17 18 18 17 16 15 14 11 9 7 5 5 5 4
3 3 6 7 5 4 5 7 7 8 7 9 8 2 4 6 3 2 6 13 13 14 15 10 11 14 12 13 15 15 14 14 13 13 15 16 16 15 15 14 16 21 25 28 30 35 40 40 41 41 41 40 38 32 31 34 30 28 27 24 24 24 26 29 26 27 31 32 32 30 26 26 27 22 22 22 19 17 17 19 20 19 17 17 19 19 18 18 16 14 11 9 8 7 6 6 5
2 4 8 5 2 4 7 9 10 8 4 7 8 5 7 6 3 6 7 9 14 13 11 11 13 14 13 10 9 8 9 12 13 15 16 18 18 17 18 18 18 22 27 27 27 33 39 42 42 42 42 41 42 36 28 29 28 26 26 25 25 24 25 26 26 30 34 34 33 32 30 31 30 26 26 25 22 18 18 20 20 18 16 18 21 20 20 19 16 13 11 10 9 8 7 7 6
2 7 11 6 2 5 7 6 7 4 1 5 7 8 7 2 4 10 10 9 12 12 8 9 13 15 15 11 7 6 7 11 12 14 16 18 19 18 19 19 17 19 25 28 30 34 37 40 43 43 44 42 43 40 33 33 32 30 28 26 26 26 26 27 31 35 37 36 35 35 34 33 30 28 27 26 24 21 21 22 22 21 21 23 24 22 20 18 15 13 12 11 10 9 8 8 7
6 8 8 9 6 8 7 2 3 3 4 6 7 7 4 5 11 11 14 15 17 19 16 15 15 15 13 10 9 9 10 12 13 15 17 18 20 21 21 19 18 21 28 32 32 34 35 39 43 43 44 44 44 42 39 39 39 37 34 31 31 29 29 34 37 39 38 38 38 37 35 33 32 30 29 29 28 26 26 26 27 27 27 26 25 22 20 17 16 14 13 12 11 10 10 9 8
7 8 6 8 7 10 9 2 3 4 7 9 7 8 9 13 12 8 13 16 19 23 21 18 18 17 13 11 14 14 14 14 16 20 19 20 24 26 25 22 19 21 28 32 32 33 35 37 40 43 44 45 44 44 42 40 41 41 39 38 38 35 36 39 41 41 41 40 40 39 37 35 34 32 32 32 31 30 29 30 31 30 29 27 25 22 20 18 17 16 14 13 13 12 11 11 10
9 11 7 5 5 9 9 3 5 7 8 8 7 12 18 17 11 13 16 15 18 22 21 18 16 16 13 13 16 15 15 15 18 20 19 21 26 27 27 26 19 20 28 32 31 33 34 34 37 42 45 45 44 44 43 40 40 42 42 42 41 39 40 41 42 43 42 42 41 41 39 38 36 35 34 34 33 33 32 32 32 31 30 28 25 23 21 20 19 17 16 16 15 14 13 12 11
7 10 7 5 8 9 7 6 8 9 7 5 7 17 21 11 7 16 17 14 18 18 18 16 12 13 13 13 14 13 14 15 16 18 17 19 21 21 26 28 23 25 31 31 32 35 35 35 37 39 42 45 44 44 44 42 41 43 44 44 43 42 43 43 44 44 44 43 43 43 41 40 39 37 36 36 35 35 34 34 33 32 31 29 26 24 24 22 21 20 18 18 17 16 15 14 12
0 5 8 10 12 10 6 7 10 9 6 7 10 19 19 3 2 12 7 5 8 9 13 13 10 12 13 12 11 11 12 15 17 16 15 15 15 17 22 23 25 32 33 31 35 36 36 37 38 38 40 43 45 46 46 46 45 45 45 45 45 45 45 45 45 45 45 45 45 44 43 41 40 39 38 38 37 37 36 35 35 34 32 30 28 27 26 24 22 21 20 19 18 17 16 14 13
4 4 10 13 13 11 9 10 11 8 5 8 11 17 18 4 3 15 11 3 2 5 13 14 12 13 13 13 11 9 10 14 16 13 13 15 14 15 19 22 27 33 32 34 37 35 36 38 38 38 39 42 46 47 48 48 48 47 47 46 46 47 47 46 46 46 47 47 46 46 44 43 42 41 40 39 38 38 38 37 36 36 34 32 30 29 27 25 24 22 21 20 19 18 16 15 14
3 3 9 13 12 14 13 10 7 6 4 5 7 10 14 9 10 18 17 9 3 6 13 14 14 13 11 11 10 9 10 13 13 11 14 17 14 12 18 23 26 30 32 35 36 34 36 37 37 39 40 42 45 48 49 50 50 49 49 49 48 48 48 47 47 48 48 48 48 47 45 44 43 42 41 40 39 39 39 39 38 37 35 33 32 30 28 27 25 23 22 21 19 18 17 16 15
4 2 4 10 11 11 6 3 1 3 4 7 6 6 10 11 13 15 11 7 7 9 13 12 12 12 11 10 9 11 13 13 14 15 15 16 15 15 20 24 24 29 31 32 33 35 35 35 37 39 40 43 45 47 49 50 52 52 51 50 50 49 49 48 48 49 49 49 49 48 47 45 44 43 42 41 39 40 40 39 39 38 36 35 33 32 30 28 27 25 24 22 21 19 18 18 16
5 2 2 5 8 6 2 5 3 3 4 8 7 6 10 15 16 11 2 3 7 11 15 13 11 13 13 13 12 14 14 15 19 22 19 16 15 18 24 27 26 29 30 30 33 35 34 35 37 39 41 43 45 47 49 51 52 53 53 51 50 51 49 49 49 49 49 50 49 49 48 47 45 44 43 42 40 40 40 40 39 38 37 35 34 33 32 30 28 27 25 24 22 21 20 19 17
3 3 5 4 5 8 4 3 6 6 2 7 9 5 9 14 16 12 2 2 4 10 17 18 16 16 17 15 14 14 14 15 19 21 18 14 14 16 22 27 27 30 31 32 33 32 33 35 36 38 41 43 45 47 49 51 51 51 51 50 50 51 50 50 49 49 50 49 50 50 49 48 46 45 44 42 41 41 41 40 40 39 38 36 35 35 33 32 30 28 27 25 25 23 21 20 17
4 4 7 6 6 8 8 4 5 5 3 7 10 7 9 11 16 16 7 4 8 13 20 22 19 19 18 16 14 13 12 14 15 15 13 11 12 14 18 22 25 28 30 30 30 30 31 33 34 36 39 42 44 45 47 48 48 48 48 47 47 49 50 50 49 49 50 50 50 50 50 49 47 46 45 43 42 42 42 41 40 40 38 37 37 36 34 33 31 30 28 27 26 24 23 20 17
4 4 5 6 8 8 8 7 2 5 5 6 10 10 12 14 18 22 19 16 16 18 21 20 18 18 18 16 15 13 12 13 14 13 12 12 13 14 16 20 23 25 27 28 28 29 30 31 33 35 37 38 40 42 43 45 44 42 43 43 44 46 47 48 48 48 49 50 50 50 50 50 49 47 46 44 43 43 42 41 41 40 38 38 38 37 35 34 32 31 30 28 26 25 22 19 17
9 6 6 7 7 8 9 10 5 1 4 7 9 12 14 16 18 20 22 21 19 18 18 17 17 20 19 15 13 13 12 13 12 12 14 14 14 15 16 18 22 23 24 25 25 26 27 28 31 32 33 34 35 37 38 39 38 36 36 37 40 42 43 44 46 48 49 49 50 51 51 50 50 49 47 45 44 44 43 42 42 41 40 39 39 37 36 35 33 32 31 29 28 25 21 18 18
10 7 8 10 8 9 12 14 8 4 8 11 12 14 13 13 16 19 21 21 19 16 14 14 16 17 14 10 10 11 12 12 10 12 15 15 15 16 17 19 21 21 21 21 20 21 23 25 27 28 30 30 30 29 30 31 29 28 28 31 35 38 40 42 45 47 47 48 50 51 51 51 50 50 49 47 46 45 44 44 43 42 41 41 40 39 38 36 35 34 32 31 29 26 23 21 20
5 6 8 10 10 12 14 15 9 3 4 9 11 15 15 14 16 20 22 20 18 16 15 16 17 13 8 8 10 10 11 11 10 13 14 14 15 17 19 21 21 20 19 18 16 17 18 20 22 24 26 27 26 24 23 24 23 21 22 26 29 30 35 40 42 45 45 46 49 49 50 50 50 50 50 48 47 47 45 45 44 42 42 41 41 40 39 38 37 36 33 31 30 28 25 24 23
9 8 9 9 10 12 11 14 8 4 1 6 8 13 16 17 19 20 19 16 15 16 17 15 13 12 9 9 12 11 10 9 10 14 18 19 19 20 20 20 21 19 19 17 14 14 14 16 18 21 22 24 26 24 22 23 23 22 22 24 24 23 29 36 37 40 44 44 45 47 47 48 48 49 49 49 48 47 46 45 45 44 43 42 41 40 39 39 38 37 35 32 30 27 25 26 26
9 6 6 6 9 10 9 9 2 3 2 6 8 11 14 19 21 18 14 11 14 15 11 8 7 10 10 10 11 11 11 12 13 16 20 21 21 21 21 21 22 21 19 18 16 15 13 12 13 16 19 22 26 26 26 25 23 25 25 23 22 19 23 31 34 35 39 41 42 43 44 45 47 48 48 49 49 48 47 46 45 45 44 43 42 41 40 39 39 39 38 36 31 24 21 28 31
7 6 5 7 9 7 6 5 1 2 5 6 10 10 12 15 12 10 9 8 11 8 5 4 5 7 9 9 8 9 12 13 15 16 16 18 21 24 26 25 25 24 23 23 23 20 14 11 10 11 14 18 22 25 28 27 23 25 26 24 22 18 18 23 28 32 34 37 39 40 42 44 45 46 47 49 49 49 48 47 46 46 45 44 44 43 42 42 41 41 40 39 36 26 19 27 34
7 8 8 10 10 9 10 5 5 9 6 2 9 9 6 5 3 3 3 6 8 2 2 3 2 3 5 5 6 10 12 13 14 16 15 17 21 25 27 27 27 27 26 29 30 24 17 14 11 8 9 12 16 21 26 27 24 22 22 22 20 17 17 17 19 22 23 25 29 31 36 39 42 44 46 47 49 49 48 48 47 46 46 45 45 45 45 44 44 44 43 41 40 33 25 26 34
7 8 12 14 13 12 12 7 5 7 3 2 8 8 2 4 5 2 2 8 8 0 2 4 6 5 3 6 10 12 13 13 14 16 17 19 22 24 27 29 29 28 28 31 33 28 21 16 11 8 6 7 11 15 20 21 19 16 15 17 15 13 15 14 13 14 14 17 21 24 29 34 37 40 42 44 46 47 48 48 48 47 47 47 47 46 45 45 45 45 45 43 42 38 30 25 30
6 3 5 9 10 9 9 7 3 4 3 1 3 5 5 5 6 3 5 11 9 2 4 5 8 6 6 9 11 12 13 13 14 17 18 19 22 23 26 28 28 27 27 28 29 27 22 17 14 11 7 5 7 11 15 17 15 14 15 16 15 13 14 12 13 13 13 17 21 25 29 33 36 39 40 42 43 45 46 47 47 48 47 48 48 47 46 47 46 46 46 46 44 39 32 25 28
4 1 1 2 4 4 4 4 3 3 5 2 3 4 7 6 5 7 8 9 7 0 4 7 8 8 9 11 13 14 15 15 14 16 17 18 21 22 24 26 27 27 27 27 27 25 22 22 21 16 11 7 7 9 11 14 14 13 15 16 14 14 14 12 11 13 14 16 20 24 27 30 34 38 40 42 43 44 45 46 47 47 47 48 49 49 49 48 47 47 47 47 46 42 38 29 29
1 2 1 2 1 1 3 3 4 3 4 4 4 4 6 6 4 6 4 4 5 3 7 9 10 11 12 13 15 16 15 15 14 14 15 16 19 22 23 24 26 27 28 29 28 26 28 32 31 24 17 12 9 8 8 12 13 11 12 14 14 14 14 12 11 12 13 16 19 22 24 27 30 34 37 39 41 44 45 46 47 47 48 48 49 49 49 49 48 49 49 49 47 45 44 36 30
1 4 3 3 3 1 1 2 3 2 5 5 7 8 6 6 3 6 1 2 5 3 7 8 11 13 14 15 15 15 13 12 13 13 14 15 18 20 20 22 27 28 28 29 31 32 37 41 37 30 24 18 14 10 7 8 11 11 10 12 13 13 12 11 11 11 12 14 16 18 22 24 26 31 35 36 38 41 43 45 46 47 48 48 49 49 49 49 49 50 50 50 50 48 48 43 35
2 3 1 1 1 1 1 1 2 3 7 4 9 12 7 5 2 5 2 0 2 5 6 6 12 15 15 14 14 13 12 11 11 12 13 15 17 19 21 24 27 28 29 32 35 37 41 43 38 31 28 25 19 14 9 7 8 10 10 10 12 13 12 11 12 12 12 13 14 15 18 20 23 28 32 34 37 39 40 42 44 46 47 48 50 50 50 50 49 50 50 50 52 51 50 49 41
2 1 2 3 2 2 1 1 1 4 7 0 5 8 8 7 3 2 2 2 3 4 6 7 12 14 13 12 12 11 11 11 11 11 12 14 16 21 25 27 27 29 32 33 35 36 38 40 36 31 30 29 24 19 14 9 8 8 9 10 11 12 12 12 13 13 12 13 14 14 14 17 20 23 27 32 36 39 40 40 41 43 45 47 49 50 50 50 50 51 51 51 52 53 52 51 47
3 1 2 4 4 2 3 2 2 5 5 1 2 4 7 10 6 3 5 2 5 5 7 10 12 12 12 10 10 10 9 10 11 11 12 13 14 19 23 24 25 27 30 30 31 32 33 34 34 32 31 29 26 23 19 14 11 10 10 11 11 12 13 13 14 14 13 13 14 14 14 16 18 22 28 33 36 39 40 40 42 43 44 46 47 48 49 49 50 50 51 52 53 53 54 53 51
7 5 4 4 4 5 5 4 3 6 4 2 2 4 5 9 6 5 6 4 11 10 11 12 12 11 10 9 9 9 9 10 10 10 12 12 14 17 20 21 22 23 25 26 27 28 29 30 31 31 30 30 28 25 22 19 16 14 13 12 12 12 12 13 13 14 14 13 14 15 16 18 21 25 30 34 36 37 40 42 43 44 44 45 46 47 48 48 49 49 49 51 52 53 54 54 52
6 3 3 5 5 6 7 6 6 8 5 2 3 3 3 5 1 5 7 10 12 11 11 11 11 9 7 8 8 9 10 10 10 10 12 13 15 17 18 19 20 22 23 24 25 26 26 27 27 28 28 29 30 28 25 22 20 17 16 15 14 13 13 13 14 14 14 14 14 15 17 20 23 27 30 32 34 35 38 41 42 43 44 45 46 47 47 47 47 48 48 49 50 50 51 51 51
3 2 2 5 4 6 7 7 6 5 6 3 3 3 4 3 3 3 11 13 11 10 10 10 9 8 7 8 9 10 10 9 10 10 11 13 15 17 18 18 19 20 22 23 24 24 24 24 25 25 26 26 28 30 29 27 25 21 18 16 15 14 15 16 16 15 15 16 18 18 19 20 23 27 29 31 33 34 36 39 41 43 44 45 45 46 46 47 47 47 47 47 48 48 48 50 51
3 3 4 2 1 3 6 7 1 1 7 6 5 7 6 6 9 3 12 12 9 8 9 9 9 8 9 9 9 9 9 9 9 9 9 11 14 16 17 18 19 19 20 21 22 21 20 21 22 23 24 24 26 27 28 30 32 29 25 22 19 17 17 17 18 19 19 20 22 23 22 22 24 27 29 30 32 33 34 36 39 41 43 44 45 45 46 46 46 47 47 47 48 48 48 49 50
3 3 2 1 1 1 3 4 1 4 9 7 7 13 11 9 7 4 12 10 7 6 7 7 8 9 9 9 8 8 8 8 9 10 10 11 13 16 16 16 17 18 18 19 20 19 18 17 18 19 21 22 23 23 24 26 31 34 34 32 29 25 21 20 20 21 21 22 24 26 25 26 28 29 30 30 31 31 33 34 36 38 41 42 43 44 45 45 45 45 46 48 49 49 48 48 50
1 2 3 2 2 3 3 3 2 6 9 6 9 15 13 10 10 8 4 8 7 5 5 6 7 8 7 6 6 6 6 6 7 8 8 9 12 14 15 16 16 16 17 17 18 19 19 19 20 21 21 22 22 24 24 23 24 28 30 31 33 32 29 25 23 22 21 22 25 27 27 29 30 30 30 30 30 30 31 32 33 35 37 39 41 43 44 44 45 45 45 46 47 47 47 47 49
1 2 1 0 2 4 3 2 2 5 9 9 10 12 10 9 9 11 3 9 8 5 6 6 6 6 5 4 4 4 4 4 4 5 5 6 8 10 11 12 13 14 16 17 18 19 21 22 24 27 29 30 29 28 29 28 25 24 23 23 27 30 31 30 27 24 22 20 22 24 26 28 30 31 30 30 29 30 30 31 32 33 35 37 39 41 43 44 45 46 46 46 46 46 47 47 47
4 5 4 3 3 2 3 3 3 6 9 10 10 11 9 4 3 2 6 9 6 5 6 5 5 5 4 4 4 4 4 5 5 6 6 6 7 7 7 7 9 11 13 15 17 18 19 20 22 25 28 33 34 33 34 33 31 28 26 24 24 25 27 30 30 27 24 22 21 21 23 25 27 29 30 31 31 30 31 32 32 33 34 36 37 40 42 43 44 46 46 47 47 47 47 47 46
4 5 6 6 6 5 7 9 7 7 9 8 10 12 8 1 3 5 8 7 5 6 6 5 5 4 4 5 5 5 6 6 7 7 6 7 8 8 8 9 10 11 13 14 14 15 17 19 19 20 23 26 30 32 35 36 35 32 29 28 30 31 30 30 29 27 25 24 22 21 22 22 23 24 27 30 31 31 32 32 33 34 34 36 37 39 41 42 44 46 46 48 49 48 48 48 46
Wind_Direction
329 318 301 304 311 272 275 310 279 179 266 280 281 298 205 204 320 293 294 338 308 32 233 299 169 174 222 311 320 323 305 264 287 298 342 54 270 257 190 190 189 178 180 180 179 182 183 183 182 186 187 188 188 186 186 186 185 186 189 192 194 193 192 189 185 186 184 185 184 186 184 179 178 173 165 162 164 164 172 177 181 181 169 154 151 153 137 132 129 134 129 130 198 223 216 229 246
347 332 307 55 356 276 230 339 282 276 266 286 302 284 33 79 266 303 349 2 352 32 353 275 223 236 287 313 308 294 266 226 262 302 2 313 283 271 206 192 185 176 177 181 178 180 183 185 184 185 188 189 190 188 189 190 188 190 193 194 195 196 196 193 190 189 188 188 187 189 187 182 178 172 161 154 153 150 151 157 165 167 165 159 154 148 141 141 131 138 127 128 224 236 257 280 285
49 35 178 188 40 320 194 227 273 296 288 302 0 73 53 282 280 356 0 347 354 23 270 249 244 252 251 251 260 274 276 218 254 275 266 282 279 258 212 198 188 176 179 183 178 180 185 190 188 185 189 190 190 190 192 194 194 196 198 199 198 199 198 197 196 192 192 191 190 192 189 185 178 168 158 152 149 146 143 142 153 158 161 158 155 149 137 139 129 133 137 157 236 242 271 281 283
65 51 179 229 229 232 231 254 283 286 292 306 335 84 132 297 337 342 332 325 331 299 238 221 226 201 235 255 277 271 271 250 224 235 252 288 245 257 208 201 193 178 183 186 180 181 186 196 191 186 190 191 192 192 194 196 198 201 203 204 203 203 202 202 200 197 197 194 192 196 192 183 175 168 162 157 155 152 145 144 150 151 158 155 152 144 134 148 140 124 145 222 245 252 271 275 279
74 52 148 242 249 275 294 277 277 256 290 345 317 18 78 304 319 313 306 307 299 257 231 224 238 145 239 271 290 276 285 256 170 209 246 303 234 257 204 198 195 181 185 187 184 185 189 199 194 189 192 193 194 195 197 197 199 202 203 205 205 204 203 203 202 201 202 198 193 197 192 179 175 172 164 163 170 168 155 156 155 151 155 159 159 140 137 171 162 130 184 245 251 261 273 278 281
97 71 78 84 59 356 239 247 245 250 293 339 293 314 333 310 308 310 306 306 288 230 226 227 270 260 250 240 222 252 302 315 150 204 219 255 237 242 202 196 195 185 186 187 188 190 194 200 194 191 193 194 196 196 199 200 200 202 204 205 204 205 205 204 203 203 203 200 194 194 190 178 179 180 173 179 190 183 170 172 176 189 181 182 194 170 158 169 172 160 195 241 254 266 273 279 281
164 132 75 96 117 255 252 259 270 272 317 246 279 299 310 313 318 308 308 316 169 177 211 234 294 285 264 183 234 239 244 246 249 231 210 237 241 224 201 194 194 189 186 187 190 191 199 202 193 192 194 195 198 198 200 201 202 203 206 207 205 206 207 205 205 204 199 196 194 192 189 182 182 183 181 199 211 204 190 188 192 209 200 201 209 195 185 177 186 179 180 236 259 266 272 276 279
145 205 20 245 182 214 260 263 272 276 283 241 272 274 287 305 312 298 301 308 261 212 207 222 230 266 282 129 262 214 230 243 240 245 237 249 250 223 198 195 195 192 189 187 191 191 199 201 193 193 194 196 199 200 201 202 203 204 207 207 206 206 206 207 205 203 196 194 192 189 187 184 188 190 192 212 226 224 215 198 194 204 200 206 204 189 181 180 187 176 194 247 263 265 269 273 283
67 1 198 252 229 233 259 261 268 261 249 256 267 260 271 290 295 286 282 276 276 276 231 217 204 247 0 245 266 194 214 249 246 247 245 248 249 227 200 197 197 195 194 188 190 192 197 198 194 195 194 197 199 200 202 202 203 204 207 205 205 205 205 207 204 199 195 193 189 189 192 192 203 210 214 225 232 232 223 194 193 206 201 207 201 190 185 181 180 180 226 258 261 258 259 267 304
80 2 193 222 239 256 260 259 262 234 237 256 270 268 273 281 277 267 270 283 287 282 284 93 210 241 307 299 276 273 236 262 255 253 247 240 240 225 203 199 200 201 199 192 191 192 195 195 195 195 195 199 199 201 202 202 203 203 205 206 207 205 203 203 199 196 191 193 194 197 203 209 216 217 220 230 230 227 218 189 191 203 199 207 198 189 186 179 184 206 246 254 237 215 177 146 79
177 65 231 230 230 266 278 279 279 272 265 271 274 268 276 278 260 251 249 280 281 269 237 140 218 237 265 280 266 258 264 272 258 255 248 232 231 221 206 204 203 205 204 198 195 193 194 196 197 196 197 201 201 203 202 202 203 201 203 204 205 200 197 198 196 196 194 199 204 205 210 215 216 216 220 225 216 211 206 192 193 198 197 201 192 187 186 191 212 232 242 221 185 166 154 150 134
226 138 212 246 248 274 298 295 290 298 291 272 265 198 294 182 202 264 253 283 289 270 238 187 214 247 240 262 259 260 259 263 252 248 245 225 223 218 207 209 206 207 207 203 198 195 196 196 198 198 199 202 203 204 202 202 202 201 204 201 201 197 198 203 201 203 204 208 211 213 214 215 216 218 220 214 205 202 200 198 196 197 198 195 190 191 191 210 229 228 215 190 176 167 163 158 148
247 158 216 248 295 284 290 291 289 303 296 261 186 113 123 194 212 294 279 291 270 272 262 196 201 311 258 280 284 276 258 237 248 247 239 219 216 216 209 211 211 208 206 204 201 200 199 198 200 201 202 204 204 205 202 203 203 202 205 202 202 202 206 211 211 212 212 215 216 215 213 215 217 215 214 207 204 204 202 200 197 195 197 194 190 191 195 216 223 210 197 182 176 171 166 159 132
250 179 251 250 82 268 251 280 281 290 301 14 96 134 192 226 237 283 273 298 275 264 347 201 196 248 261 277 269 266 201 189 246 245 229 219 213 214 211 211 214 212 208 206 205 204 203 202 201 202 204 205 206 206 205 207 207 207 208 207 208 209 211 214 217 216 216 217 216 216 215 218 221 218 215 209 205 205 204 200 196 194 195 196 192 195 206 216 213 198 190 182 178 177 170 173 37
242 173 254 230 189 248 218 260 289 271 290 334 115 127 217 238 188 212 250 294 300 85 16 214 185 247 240 234 273 22 99 202 260 242 223 219 214 214 213 212 214 212 212 209 207 207 206 206 205 205 205 206 207 208 208 209 210 209 209 210 212 212 213 216 218 217 216 216 215 216 216 216 219 219 215 208 206 207 206 201 196 198 199 198 199 206 213 212 204 194 190 186 185 183 179 179 1
253 175 213 245 217 239 211 211 236 252 264 173 113 122 253 224 159 241 276 295 294 199 195 206 190 253 260 239 282 34 106 280 288 255 225 219 217 215 215 213 213 214 214 211 210 210 209 209 209 209 208 207 209 210 210 211 212 212 211 211 213 213 213 214 216 217 216 216 216 214 214 214 216 218 214 207 208 209 208 203 199 203 201 198 205 211 211 205 199 194 191 191 188 184 181 184 269
213 220 228 248 222 225 202 196 206 270 297 228 147 176 258 271 157 239 317 258 266 256 217 218 208 240 246 245 280 306 274 281 277 262 226 217 213 209 213 212 211 215 216 214 213 212 211 211 212 212 212 211 210 212 212 211 214 214 213 214 214 213 213 213 214 217 216 215 216 214 214 216 216 217 216 209 208 210 210 208 203 200 196 195 204 208 204 199 196 195 195 193 189 183 181 202 238
217 222 236 247 238 225 197 216 218 276 298 273 199 172 251 285 261 202 263 242 247 257 249 231 233 242 242 251 265 267 270 273 262 249 221 211 204 206 208 207 209 214 218 217 216 214 213 214 214 214 215 215 212 213 214 213 216 215 215 216 215 214 213 214 215 216 215 214 215 213 212 214 213 211 211 207 204 207 209 210 202 193 192 195 202 204 200 197 196 197 197 193 188 189 195 213 232
225 215 240 244 237 214 198 228 225 237 278 289 278 199 228 276 300 39 270 272 262 265 268 237 235 247 244 247 252 253 257 258 250 238 232 225 216 217 214 208 210 213 216 218 219 217 215 215 216 216 217 217 215 215 218 218 218 217 215 215 217 215 213 214 214 215 213 212 214 212 208 210 209 202 203 202 197 200 204 206 198 190 192 197 201 201 198 196 197 198 196 193 191 197 207 216 228
223 214 247 248 237 232 221 233 235 243 273 289 282 249 233 255 249 201 258 282 277 263 268 255 250 262 252 240 241 242 241 244 240 235 240 239 231 227 225 216 212 218 222 222 221 219 218 217 217 217 218 218 217 216 218 218 217 215 213 213 215 212 213 213 211 211 212 212 213 210 207 211 210 205 209 207 200 200 202 201 196 193 194 198 201 199 197 198 197 196 192 192 197 204 211 218 227
181 202 246 254 205 243 234 223 237 251 273 276 279 287 273 262 205 221 245 279 278 264 258 255 266 283 281 264 246 231 228 235 233 234 240 242 238 233 232 229 225 228 230 227 222 223 223 220 219 219 218 218 218 216 214 214 212 211 210 212 212 209 212 211 208 211 213 214 214 212 211 215 214 211 215 212 205 200 197 196 194 192 193 198 200 197 198 198 196 194 192 195 201 209 214 221 227
201 222 248 258 189 255 250 217 233 242 231 257 263 276 286 291 223 228 230 248 268 276 277 265 271 281 286 286 271 239 235 238 232 231 235 240 241 238 237 235 233 233 234 232 229 230 229 225 221 220 219 218 219 216 214 214 212 211 209 209 208 207 210 209 209 212 214 215 215 214 215 216 214 213 214 210 204 199 195 194 192 193 196 201 200 199 200 198 195 194 195 200 206 213 216 221 227
245 236 240 251 234 248 257 195 196 186 209 247 256 281 300 272 267 240 221 232 254 273 282 280 280 279 280 286 275 255 247 244 240 236 233 238 241 240 241 237 233 235 238 238 235 234 234 230 225 221 220 219 219 218 216 217 215 214 212 212 209 207 210 211 212 212 213 215 216 217 216 215 213 212 213 210 207 204 202 201 199 201 203 204 203 202 201 196 195 196 198 204 209 214 216 219 223
248 254 238 249 245 246 256 228 198 209 234 254 274 295 279 262 272 255 225 230 251 269 276 275 277 278 276 273 269 264 259 253 251 248 240 241 246 248 249 245 240 240 243 243 240 238 236 234 228 224 223 222 220 218 217 217 217 216 215 215 214 211 212 213 213 213 214 215 216 218 216 215 213 212 213 212 211 209 207 206 206 206 207 206 205 202 199 197 198 198 201 205 209 212 213 217 218
227 251 252 242 249 250 258 247 231 244 245 257 280 278 269 265 274 275 260 245 250 263 271 272 273 275 272 264 264 264 262 259 255 255 248 245 250 253 253 251 246 243 246 247 244 242 240 238 234 229 226 223 222 219 217 217 218 217 217 217 215 214 215 215 215 215 215 215 216 218 217 215 214 213 214 214 213 211 210 210 208 208 209 208 206 201 198 198 199 199 202 205 207 209 210 213 214
216 246 269 260 265 265 263 257 245 249 243 226 253 266 268 274 291 276 265 246 246 257 268 274 274 273 271 262 259 258 259 261 258 258 253 249 250 250 253 252 245 245 249 248 246 245 243 240 239 234 228 224 222 221 219 218 219 218 218 219 217 216 217 216 216 217 216 216 217 218 218 217 216 215 215 215 213 212 212 211 209 209 210 209 205 202 199 198 200 201 201 203 204 205 207 208 209
328 272 290 273 271 275 256 258 256 252 245 206 229 264 269 283 346 272 256 200 229 255 270 277 272 269 272 267 264 259 255 257 258 260 258 254 246 242 249 248 244 249 250 247 247 246 244 242 240 237 231 227 224 222 221 220 220 220 220 220 219 219 218 217 218 218 218 218 218 218 218 218 218 217 217 216 214 212 212 211 209 210 211 209 205 202 200 199 200 202 202 202 201 202 203 203 203
358 320 295 278 276 279 249 247 252 240 236 206 220 263 271 258 227 259 261 220 187 276 277 279 276 271 272 272 273 267 258 257 254 251 254 253 243 239 246 247 249 252 249 250 251 245 243 241 238 237 234 230 226 224 224 222 222 222 222 221 220 221 220 219 218 218 219 219 219 219 219 218 219 218 218 218 215 213 213 211 210 210 210 208 205 202 201 200 200 203 203 201 200 200 201 200 199
314 310 293 288 287 285 264 251 242 209 209 183 198 262 271 243 224 249 263 269 283 285 277 278 278 275 273 271 271 268 266 264 254 240 245 255 254 249 256 259 259 256 254 256 254 246 244 241 237 237 234 231 229 227 225 224 223 223 224 222 222 222 221 220 220 220 220 220 221 221 220 220 219 219 219 219 217 215 213 212 211 211 211 208 205 203 201 200 200 202 202 200 200 199 199 198 198
276 247 285 295 291 285 261 231 146 173 188 160 181 267 282 263 250 254 265 291 310 290 277 277 276 278 279 270 268 269 269 270 268 262 258 262 265 265 268 268 265 261 259 257 253 249 247 240 236 235 232 232 230 227 225 224 224 224 225 223 222 222 221 221 221 222 221 221 222 222 221 221 221 220 220 220 217 216 214 213 212 211 211 209 205 203 200 200 200 200 200 198 198 198 197 196 195
274 270 244 276 280 282 128 126 143 217 180 161 198 261 278 281 284 281 309 7 317 296 288 283 275 279 282 276 273 271 271 271 273 278 281 277 270 268 271 272 268 265 262 256 255 254 248 242 239 235 232 231 230 228 226 226 225 224 224 222 222 223 221 221 222 222 222 222 222 222 222 222 222 221 221 220 217 216 216 215 214 213 212 209 205 203 200 200 200 200 199 198 196 196 197 195 193
249 271 261 231 238 272 285 169 193 239 214 170 206 256 271 276 291 296 27 84 284 288 289 287 284 283 284 283 279 275 276 277 278 285 291 282 268 264 270 274 271 267 264 259 258 256 248 244 241 237 233 231 229 229 227 227 225 223 224 222 222 222 221 221 222 222 223 223 223 223 223 222 222 222 222 221 219 217 216 216 215 214 212 208 205 204 201 201 200 200 199 199 197 194 194 194 193
210 228 264 260 253 278 296 265 202 207 180 191 219 257 280 280 295 298 289 263 275 282 283 285 289 288 287 286 283 282 286 289 289 293 294 286 279 269 267 273 274 271 268 263 257 254 249 244 242 239 235 232 230 229 227 226 224 223 223 222 222 222 222 221 221 222 223 223 223 223 223 222 222 222 222 222 220 218 217 216 216 215 213 208 206 204 202 202 201 200 199 200 198 195 193 192 190
240 224 245 259 257 272 292 288 256 155 174 218 228 242 265 273 287 292 288 285 280 276 279 285 290 288 285 284 286 291 297 295 295 298 295 295 294 283 275 279 280 277 273 268 260 256 252 246 243 241 237 233 230 228 227 226 225 224 224 223 223 223 222 221 221 222 223 223 223 223 224 223 222 222 222 221 219 219 218 217 217 216 212 208 207 204 203 202 201 201 200 198 197 193 190 189 190
276 274 272 278 259 256 271 276 284 224 248 268 253 247 263 272 276 281 283 283 276 270 277 286 285 280 280 285 293 298 299 293 295 304 303 304 303 298 294 292 291 287 280 274 267 260 254 248 245 243 237 232 230 228 227 226 224 223 223 223 224 224 223 221 221 223 223 223 224 224 224 224 222 222 221 221 219 218 218 217 217 216 212 208 206 204 203 201 200 201 201 199 196 191 186 186 190
287 291 284 286 285 272 270 270 276 305 294 286 277 273 279 281 278 281 281 279 277 277 283 283 275 274 282 295 296 296 298 299 306 309 308 311 313 314 313 311 308 303 296 288 277 266 259 252 248 245 238 232 228 225 223 221 219 218 218 220 222 223 222 223 223 223 224 224 224 225 224 223 222 221 221 220 219 218 217 217 217 215 211 208 206 204 203 202 201 201 201 200 195 190 188 187 189
285 276 272 272 280 277 276 279 288 17 307 278 280 290 296 291 280 277 277 279 286 287 278 269 270 282 303 305 294 296 299 303 313 314 319 327 332 335 332 329 327 324 321 315 298 282 269 257 251 247 242 234 227 220 217 214 212 212 214 216 220 221 221 223 224 224 224 225 225 224 224 223 222 221 221 219 218 217 216 216 215 214 211 208 207 207 206 205 203 201 200 198 195 191 189 189 187
254 257 270 271 268 268 274 286 304 42 315 269 277 293 300 293 280 272 274 284 286 277 268 267 280 296 305 304 303 309 310 317 330 336 346 351 350 350 347 346 348 348 346 342 330 312 291 270 256 249 245 237 231 224 219 218 215 215 217 220 221 220 222 223 223 224 224 224 225 224 223 222 221 221 221 219 218 217 215 214 213 212 211 209 208 208 207 206 203 202 199 195 192 190 191 189 183
251 247 263 269 266 271 271 272 302 79 283 292 301 302 292 278 275 279 282 276 266 264 271 289 304 297 299 311 317 322 329 340 350 357 360 358 359 1 2 2 1 1 2 1 358 348 327 295 270 254 246 240 235 230 227 225 222 222 222 224 224 222 227 228 226 227 227 226 226 225 224 223 222 221 220 219 218 217 215 214 213 212 211 210 208 207 207 206 204 203 201 196 191 187 191 191 185
238 235 253 259 263 276 269 248 64 334 282 293 296 289 276 267 262 273 276 251 253 274 302 291 277 285 301 313 322 339 348 357 5 9 7 3 9 13 13 8 3 5 8 5 2 357 348 325 296 269 253 245 238 233 232 229 227 228 227 227 228 227 234 236 232 232 231 229 228 227 226 225 223 222 221 220 218 217 216 215 214 213 212 211 209 208 207 206 205 203 201 198 192 185 186 191 190
232 221 235 254 261 265 265 277 348 309 275 279 300 286 263 254 176 177 250 249 254 296 350 296 286 295 303 325 1 19 15 17 21 16 12 13 15 15 13 10 8 9 6 5 6 1 349 334 317 291 266 251 243 240 237 231 228 231 227 228 233 235 241 243 239 239 237 233 230 229 229 227 225 224 222 221 219 218 217 216 216 214 213 211 210 209 208 208 207 205 202 200 197 191 186 189 193
255 223 227 247 263 270 274 293 341 302 256 64 339 322 260 185 159 123 309 268 263 106 347 353 40 6 356 36 32 33 28 27 30 23 20 22 20 15 14 13 11 8 3 6 12 9 353 342 337 324 293 260 250 247 240 231 224 224 219 220 226 230 235 238 236 240 240 234 232 233 233 230 227 225 224 223 222 220 218 217 216 215 213 211 210 209 209 208 207 206 204 202 201 197 191 187 192
266 235 224 239 255 268 276 287 306 288 283 26 345 310 281 227 198 213 236 251 266 339 343 24 65 33 29 49 40 37 34 30 30 27 26 25 22 19 18 16 13 8 3 4 12 12 4 2 7 3 344 300 271 255 241 230 220 218 216 214 217 221 227 231 228 230 235 233 233 235 236 234 231 229 227 226 224 222 221 219 218 217 215 213 211 209 209 210 209 208 207 206 204 201 195 189 191
255 106 84 193 227 245 237 254 256 274 306 291 199 237 284 268 201 207 220 243 262 239 39 36 59 60 53 48 43 41 34 30 29 27 26 24 23 23 21 19 17 13 8 9 11 9 11 20 24 19 9 350 308 276 247 233 223 217 217 218 222 226 229 234 232 229 232 233 232 234 236 236 234 232 229 229 227 224 223 221 220 218 216 215 212 210 210 211 210 209 209 208 206 202 200 196 195
313 73 40 80 84 229 190 233 258 279 313 279 186 176 277 280 181 192 234 258 242 150 70 49 53 61 57 46 42 40 33 31 30 27 25 23 23 24 23 22 20 17 15 16 15 12 20 30 31 24 15 5 340 310 269 244 233 226 226 226 231 236 237 241 242 234 232 234 233 231 232 234 234 232 230 230 228 226 225 223 221 219 217 216 214 212 212 212 212 211 209 208 206 205 205 203 201
86 122 101 75 69 60 152 265 288 286 286 262 172 169 263 294 177 176 220 230 201 102 50 60 69 58 49 45 39 35 30 27 26 26 25 23 24 23 23 24 24 21 18 20 22 23 29 34 32 24 15 7 354 337 304 264 246 237 239 237 238 243 243 245 246 241 236 235 231 228 229 230 231 231 230 230 230 228 227 225 223 221 219 218 216 214 214 213 213 213 212 210 209 208 208 207 206
133 156 75 58 162 107 164 279 337 274 271 241 165 178 222 289 205 170 168 261 132 54 23 48 68 57 46 44 38 32 27 22 22 24 23 22 23 23 23 25 25 22 21 22 24 26 31 34 32 25 16 10 3 353 335 305 273 255 254 252 250 251 253 252 249 245 239 233 231 227 226 226 228 231 230 229 230 230 229 227 225 224 221 220 219 217 216 215 214 214 213 212 211 210 210 209 209
205 179 333 291 241 191 180 148 121 254 267 285 144 177 203 239 240 128 90 50 49 23 8 37 60 58 50 44 38 34 27 22 21 20 19 20 20 21 22 23 21 20 21 21 21 25 30 33 31 26 20 14 9 1 350 332 309 286 275 273 270 265 263 262 257 253 245 237 235 231 225 223 224 228 229 230 231 230 229 228 227 226 224 222 222 220 219 217 216 215 214 213 213 212 212 211 210
210 199 249 274 281 252 250 250 204 250 262 61 107 172 213 245 248 256 277 25 70 46 38 56 68 65 56 46 38 34 30 26 25 21 20 21 19 19 20 20 20 20 20 19 19 23 28 30 31 29 24 18 15 11 4 352 335 318 299 288 283 277 274 271 266 262 258 249 243 236 229 226 224 226 229 231 232 231 228 227 228 227 226 225 225 223 221 220 218 217 215 215 215 214 213 212 211
189 192 200 228 267 273 270 263 251 266 264 93 131 178 233 271 266 245 267 43 70 71 67 71 77 74 65 55 43 36 33 29 27 25 24 24 22 20 19 18 19 20 19 19 20 22 26 28 29 29 26 21 20 19 16 9 355 339 322 304 292 285 280 278 273 269 267 260 252 245 241 238 235 236 237 236 235 232 229 228 228 228 228 227 227 226 225 223 221 219 218 217 217 216 215 214 213
189 185 203 234 253 261 266 258 252 268 272 132 140 175 226 274 347 104 97 74 67 71 76 77 77 75 72 63 50 40 34 29 28 28 27 27 24 22 21 20 18 18 19 20 21 21 24 26 26 27 25 23 22 22 20 17 8 354 339 321 307 298 290 285 280 274 270 266 260 255 252 249 247 247 246 243 240 236 233 230 229 228 229 229 229 229 227 226 223 221 220 220 219 218 217 216 215
182 119 230 250 243 231 251 266 259 280 290 231 186 224 230 259 298 108 101 85 70 66 69 72 69 67 66 56 46 40 33 27 27 27 25 24 24 25 23 21 19 18 20 22 22 22 24 24 24 26 25 23 24 25 24 22 18 10 357 341 327 318 307 297 289 282 276 272 268 265 260 257 256 254 252 250 246 242 238 234 231 230 230 230 230 230 228 227 225 223 221 221 222 221 220 219 218
141 154 215 236 355 236 254 270 247 241 270 249 226 253 252 272 278 191 108 87 74 67 61 62 60 58 59 51 39 33 31 27 26 28 28 23 23 26 25 22 20 18 19 21 21 23 25 25 24 25 25 25 24 24 25 26 25 22 15 7 357 345 329 313 302 293 287 282 278 273 268 264 263 261 258 255 252 248 244 239 235 233 232 230 230 230 229 228 226 225 223 223 223 223 222 221 220
150 192 244 355 43 269 252 267 253 233 253 246 235 256 266 275 273 142 113 99 82 68 63 65 59 55 57 53 42 31 26 25 24 26 27 25 23 24 24 23 22 20 20 20 20 21 24 26 26 26 27 27 25 25 25 25 26 25 23 19 15 7 354 340 326 312 300 292 287 282 276 271 269 267 264 261 258 252 248 244 239 235 233 232 231 230 230 229 228 226 225 225 225 224 223 222 222
245 279 352 359 253 245 222 226 247 242 252 253 236 247 257 255 257 255 187 124 112 99 85 74 61 58 57 52 46 34 26 23 25 25 23 24 23 22 21 20 18 19 19 18 18 19 20 20 22 24 26 25 25 25 24 24 24 22 22 21 20 18 11 359 347 334 319 303 295 291 285 280 277 274 269 265 261 255 251 247 242 237 235 233 232 231 230 229 228 227 226 226 226 225 224 223 223
158 255 301 304 264 276 259 258 304 256 257 262 249 248 249 241 261 277 250 122 129 137 106 88 71 67 60 50 40 26 26 24 23 27 24 27 28 25 23 19 17 18 17 16 15 16 17 16 17 19 20 20 20 20 21 21 20 18 18 18 19 21 19 13 5 353 336 318 306 299 293 289 285 280 275 269 263 257 253 250 246 241 237 235 233 232 231 229 228 227 226 226 226 225 224 224 224
209 221 224 213 215 288 296 271 247 250 259 263 261 258 249 251 337 19 107 113 126 119 105 100 88 79 66 54 37 18 24 20 16 20 18 20 21 22 22 20 22 23 21 19 18 16 16 16 17 18 17 17 16 16 15 15 15 15 15 14 14 15 15 15 13 6 353 336 322 311 304 299 291 284 279 273 267 262 257 253 250 246 241 238 235 233 232 230 229 228 227 226 225 225 224 223 224
253 240 235 238 242 261 277 258 225 229 250 254 263 265 253 270 27 92 113 111 108 106 106 105 91 77 61 45 28 22 20 14 13 11 7 9 7 8 13 16 19 20 19 19 18 17 17 17 18 18 17 17 15 14 13 12 12 11 10 10 12 12 12 11 10 8 1 350 337 325 317 310 298 288 284 278 271 266 261 257 252 248 245 242 239 236 234 232 230 229 228 227 225 224 223 222 223
Height
828 829 828 829 828 829 828 828 838 837 838 842 837 835 833 831 833 830 827 825 826 825 824 825 824 823 823 823 821 819 818 817 815 818 818 807 802 802 802 803 803 805 806 808 810 812 813 814 815 817 819 820 822 823 825 826 827 828 829 830 831 832 833 833 834 835 835 836 836 837 837 838 838 838 838 838 839 839 840 840 840 841 841 842 842 842 843 842 842 842 842 842 842 841 842 842 842
829 829 828 829 827 830 831 831 842 842 841 843 834 833 833 832 833 828 825 825 825 825 826 825 824 823 823 822 821 820 816 810 807 808 806 802 802 802 802 803 803 805 807 808 810 812 814 814 815 816 818 819 821 822 823 825 826 827 828 829 830 831 832 833 834 835 835 836 836 837 837 837 838 838 838 839 839 840 840 840 841 841 841 842 842 843 843 843 843 843 843 842 842 841 841 842 842
829 829 829 829 828 829 831 833 842 846 847 846 833 830 834 833 829 826 825 825 824 826 827 826 826 823 822 823 820 820 814 806 805 805 803 802 802 802 802 803 803 805 807 808 810 812 814 815 815 816 817 818 820 821 822 824 825 826 827 828 829 830 831 832 833 834 835 835 836 836 837 837 837 838 838 839 840 840 840 841 841 841 842 842 842 843 843 843 843 843 843 843 842 842 842 842 842
829 829 829 829 830 830 833 839 842 846 847 844 836 829 832 831 826 825 824 824 824 826 827 825 825 820 821 822 817 817 812 805 804 804 803 802 802 802 802 803 804 805 807 808 810 812 814 815 815 816 817 818 819 820 822 823 824 825 826 827 828 830 830 831 832 833 834 834 835 836 836 836 837 838 838 839 840 840 840 841 841 841 842 842 842 842 843 843 843 843 843 843 842 842 842 842 842
829 829 829 828 832 834 837 844 844 847 843 838 837 828 828 829 826 826 824 823 823 825 825 824 823 818 819 819 816 815 808 803 803 803 803 802 802 802 802 803 804 805 806 808 810 812 813 814 815 816 817 818 819 820 821 822 823 824 825 826 827 829 830 830 831 832 833 834 835 835 835 836 837 837 838 838 839 839 840 841 841 842 842 842 842 842 842 843 843 844 843 843 842 842 842 842 842
829 829 829 828 833 835 840 847 845 844 835 833 836 826 824 825 825 826 823 822 823 825 824 823 822 820 820 814 812 809 803 803 803 802 802 801 802 802 802 803 804 805 806 808 810 811 813 813 814 816 817 818 819 820 821 822 823 824 825 826 827 828 829 830 831 831 832 833 834 834 835 836 836 837 837 838 838 839 839 840 841 842 842 842 842 842 842 843 843 844 843 842 842 842 841 842 841
829 829 830 831 835 837 842 846 842 839 832 832 834 827 823 822 824 827 824 823 823 824 824 824 821 822 818 812 810 804 800 803 801 801 801 801 801 801 801 802 804 805 806 808 809 811 812 812 814 815 816 818 819 820 821 822 822 823 824 825 826 827 828 829 830 830 831 832 833 833 834 835 836 836 836 837 838 838 839 840 841 841 842 842 842 842 843 843 843 843 843 842 841 841 841 841 841
829 831 833 835 839 842 844 845 841 837 834 833 832 828 825 822 825 827 825 824 823 821 823 822 821 822 815 812 811 801 799 801 800 800 800 800 800 800 801 802 803 804 805 807 808 810 811 812 813 815 816 817 818 819 820 821 822 823 823 824 825 826 827 828 829 830 831 831 832 833 834 834 835 836 836 836 837 838 838 839 840 841 841 841 841 842 842 843 843 843 843 841 841 841 841 841 841
829 831 835 837 841 845 845 844 840 836 834 832 830 826 824 823 826 827 825 823 822 820 821 820 821 821 813 812 809 798 798 799 799 799 799 799 799 800 800 801 802 803 804 805 807 809 810 811 812 814 815 817 818 819 820 821 822 823 823 824 824 825 826 827 828 829 830 831 832 833 833 834 834 835 835 835 836 837 837 838 839 840 841 841 841 842 842 842 843 843 842 841 841 840 841 841 841
830 832 835 838 842 846 845 840 836 835 832 830 827 824 822 823 825 827 825 822 821 820 820 821 822 819 813 812 806 797 797 797 798 798 798 799 799 800 800 801 802 803 803 804 806 808 809 810 811 813 815 816 817 818 819 820 821 822 823 824 824 825 826 826 827 828 829 830 831 832 833 834 834 835 834 835 836 836 836 837 839 839 840 840 841 841 841 842 842 842 841 840 840 840 840 840 840
832 834 835 840 844 845 841 836 833 831 829 829 826 822 821 822 826 825 825 822 819 820 820 822 820 816 814 812 803 795 795 796 797 797 797 798 798 799 800 801 802 802 803 804 805 807 808 809 811 812 813 815 816 817 818 819 820 821 822 823 824 824 825 826 827 828 829 830 830 831 832 833 833 834 834 834 835 835 836 837 838 839 839 840 840 840 841 841 841 841 840 840 840 840 840 840 840
834 836 836 841 843 840 840 840 836 831 827 828 823 820 822 823 826 823 822 821 819 820 817 818 815 813 815 811 800 793 794 795 795 796 796 797 798 799 799 800 801 802 803 803 805 806 808 809 810 811 812 813 814 816 817 818 819 820 821 822 823 824 825 826 827 827 828 829 829 830 831 832 832 833 833 834 834 835 835 836 837 838 838 839 839 840 840 841 840 840 840 840 840 840 840 840 840
834 836 836 840 843 841 844 844 838 836 828 822 820 822 825 823 822 819 819 820 819 819 814 812 812 812 813 807 798 792 792 794 794 795 795 796 797 797 798 799 800 801 802 803 804 805 806 808 809 810 811 812 813 814 815 817 818 819 820 821 822 823 824 825 826 827 827 828 829 829 831 831 831 832 833 833 834 834 834 835 836 837 837 838 838 839 840 840 839 839 839 840 840 840 840 840 840
832 835 835 841 849 845 845 842 835 839 827 817 820 823 826 822 819 819 819 819 816 815 812 809 810 814 812 805 798 791 791 792 793 794 794 795 796 796 797 798 799 800 801 801 802 803 804 806 808 809 810 811 812 812 813 814 816 817 819 820 821 822 823 824 825 826 827 828 828 829 830 830 831 831 832 832 833 833 833 834 835 836 836 837 838 838 839 839 839 839 839 839 840 840 840 840 840
832 833 835 839 847 844 843 840 835 840 828 816 821 823 824 820 819 820 818 818 813 809 811 810 811 812 807 804 799 791 792 793 793 794 794 795 795 796 796 797 798 798 799 800 801 802 803 804 806 807 808 810 811 812 812 813 814 815 816 818 819 821 822 823 824 825 826 827 828 829 829 830 830 830 831 832 832 832 833 833 834 835 836 836 837 837 838 838 838 839 839 839 840 840 840 840 840
831 832 837 839 843 844 840 839 839 841 826 815 822 825 823 818 819 821 816 817 813 809 811 810 809 807 801 799 795 790 792 793 793 794 794 795 794 795 795 796 797 797 798 798 799 799 801 802 803 805 806 808 809 810 811 812 812 813 814 816 817 819 820 821 822 824 825 826 827 827 828 829 829 830 831 831 832 832 832 833 834 835 835 836 836 837 837 838 838 839 839 840 840 840 840 840 839
832 832 838 839 841 841 836 835 836 832 820 815 821 823 821 818 819 819 816 817 814 809 809 806 803 801 797 794 791 791 792 792 793 794 794 794 794 795 795 795 795 795 795 795 796 797 798 799 800 802 803 805 807 808 809 810 811 811 813 814 815 816 817 819 820 822 823 824 825 826 827 828 829 829 830 831 831 832 832 833 833 834 835 836 836 836 837 837 838 839 839 839 839 839 839 839 839
833 833 839 838 834 832 828 826 825 822 819 816 817 820 821 819 818 817 816 815 811 808 804 802 800 796 793 792 791 791 791 792 793 793 793 793 793 793 793 793 793 792 792 792 793 794 795 796 798 799 800 802 804 806 806 807 808 809 811 812 813 814 815 817 818 819 821 822 822 824 825 827 828 829 829 830 831 831 832 832 833 834 835 835 835 836 837 837 838 838 839 839 839 839 839 839 839
832 834 839 833 826 824 820 818 818 819 818 815 815 819 821 819 816 817 816 812 808 807 800 797 798 793 791 790 789 790 789 791 791 791 791 790 791 790 790 790 789 789 789 789 789 790 792 793 794 796 797 798 800 802 802 804 805 807 809 810 811 812 813 815 816 817 818 819 820 821 824 824 826 827 828 828 830 831 831 832 833 834 835 835 835 836 836 837 837 838 838 838 839 839 839 839 839
830 833 836 826 819 820 819 818 817 815 816 816 816 817 819 817 815 816 815 810 807 804 797 795 795 790 787 786 785 787 788 789 789 789 789 787 787 787 786 786 785 785 785 785 786 786 788 789 790 792 793 795 796 798 800 801 803 805 807 808 810 810 811 812 814 815 815 816 817 819 821 821 823 825 825 826 828 829 830 832 833 834 834 834 834 835 836 836 837 837 838 838 838 838 838 838 838
830 831 828 819 819 821 817 816 815 815 818 819 817 818 817 813 814 813 811 812 804 795 791 790 790 786 784 783 783 785 786 786 786 786 785 784 784 783 782 782 782 782 782 783 783 783 784 785 787 788 790 791 793 795 797 798 800 802 804 805 806 807 809 809 810 811 811 813 814 816 817 818 821 822 823 824 826 828 829 830 831 833 833 833 834 834 834 835 836 836 837 837 837 837 838 838 838
830 825 818 816 821 821 813 813 815 817 821 821 819 818 814 811 812 809 809 811 798 786 785 785 784 782 782 782 782 783 784 784 783 783 782 781 780 780 779 779 780 780 780 780 779 779 780 782 783 784 786 787 789 791 793 794 796 798 799 801 802 804 805 805 806 807 808 810 811 813 814 816 818 820 820 822 824 825 827 828 829 830 831 831 832 833 833 834 835 835 836 836 836 837 837 837 837
827 819 816 815 817 818 812 813 817 818 820 819 816 813 811 811 808 801 803 803 791 781 782 781 780 779 780 781 781 782 781 781 780 779 778 777 777 775 775 776 777 777 777 776 776 777 777 777 779 781 783 784 785 787 789 790 791 793 795 796 798 799 800 800 801 803 804 806 808 809 811 813 815 816 817 819 820 822 823 824 826 827 828 829 830 831 832 833 833 834 834 835 835 836 836 837 837
828 820 817 816 815 816 812 814 818 818 818 815 813 812 810 809 804 796 796 795 787 781 779 779 778 777 778 779 779 779 777 777 775 774 774 774 772 771 772 773 773 774 774 773 774 774 774 774 776 778 779 780 782 784 786 787 788 790 791 792 793 795 796 797 798 799 801 802 804 806 808 810 811 813 814 815 817 818 820 821 822 823 825 826 827 829 830 831 832 832 833 834 835 835 836 836 836
828 821 816 817 816 814 812 815 817 817 816 814 815 813 804 802 801 793 790 791 786 780 776 776 777 776 777 777 775 775 774 773 771 770 770 769 768 769 769 770 771 771 770 770 771 772 772 773 774 775 775 777 779 781 783 784 785 786 787 788 789 791 792 793 795 796 798 799 801 802 804 806 808 809 810 812 813 815 816 817 819 820 822 824 825 827 828 829 830 831 832 832 833 834 835 835 836
821 818 816 817 815 812 812 814 815 815 813 814 816 810 799 797 800 790 782 783 781 777 776 774 776 775 774 774 772 772 771 769 767 766 766 765 765 766 765 766 767 766 765 767 768 768 769 770 770 771 773 775 776 778 779 780 781 782 783 784 786 787 788 790 791 793 795 796 797 799 801 803 804 806 807 808 810 811 813 814 816 817 819 821 823 824 826 827 828 829 830 831 832 833 834 834 835
820 820 818 816 814 811 812 813 812 811 810 812 813 806 796 797 803 790 775 776 777 778 777 774 775 774 771 770 768 767 767 765 763 762 762 762 762 762 761 762 762 761 761 762 762 763 764 765 766 767 770 771 772 773 774 776 777 778 779 781 782 783 785 786 787 789 791 792 794 795 797 799 801 802 804 805 807 808 810 811 813 815 816 818 820 822 823 825 826 827 828 829 830 831 832 833 834
823 824 820 814 812 809 809 810 808 809 810 809 810 806 797 799 803 789 774 775 776 778 777 773 773 770 767 767 765 764 762 760 759 759 758 757 757 757 757 757 757 757 757 757 756 758 758 760 761 762 764 766 767 768 769 771 772 774 775 777 778 779 781 782 784 785 787 788 790 792 794 796 798 799 801 802 804 805 807 809 810 812 814 815 818 819 821 823 824 825 826 827 828 829 830 831 832
825 825 823 814 810 807 802 802 804 807 809 808 810 810 799 794 794 780 772 773 774 778 775 772 770 767 765 763 762 761 758 756 755 755 754 753 754 755 754 753 754 753 752 752 752 753 753 754 756 757 759 760 761 763 764 766 767 769 770 771 773 775 777 779 780 781 783 785 786 788 791 793 794 796 798 799 801 803 804 806 808 810 811 813 815 817 819 821 822 823 824 826 827 827 828 829 830
825 825 826 819 814 807 797 799 806 807 808 806 809 812 796 782 780 773 771 774 775 777 772 770 768 764 763 761 760 758 754 753 751 749 750 751 752 753 752 750 750 748 747 748 747 747 748 749 751 752 753 753 755 757 759 760 762 763 764 766 768 770 773 775 776 778 779 781 783 785 788 789 791 793 795 797 799 801 802 804 805 807 809 811 813 815 817 818 820 821 822 824 825 826 827 828 829
823 825 825 823 821 807 795 802 809 806 808 806 807 812 797 778 774 771 772 776 778 777 770 767 766 762 760 757 756 754 750 749 747 746 748 750 750 749 748 746 745 744 742 742 742 742 744 744 745 746 747 748 749 751 752 754 756 757 759 761 763 765 768 770 772 774 776 777 779 782 784 786 788 790 792 794 797 799 800 802 804 806 807 809 811 813 815 816 818 819 821 822 823 825 826 827 828
823 828 823 820 821 807 795 799 802 801 806 808 807 807 796 780 773 770 773 777 779 778 770 764 764 761 757 754 752 749 746 745 745 745 746 746 745 745 744 742 741 739 738 737 737 738 739 739 740 741 741 742 743 745 747 749 751 753 754 756 758 760 763 765 768 770 772 774 776 778 780 782 785 788 790 792 795 797 798 800 802 804 806 808 810 811 813 814 815 817 819 821 822 823 825 826 827
821 826 822 816 816 809 800 794 793 798 803 807 807 802 794 783 775 771 772 774 776 775 767 762 761 758 754 751 747 746 745 744 743 744 744 742 742 741 740 738 737 735 734 733 734 734 734 735 736 737 737 738 740 741 744 746 748 750 752 754 755 757 759 761 764 766 768 770 772 774 776 779 782 785 787 790 792 794 796 798 800 802 804 806 808 809 811 812 813 815 817 819 820 822 823 825 826
816 818 819 815 813 812 807 795 791 797 801 803 805 803 797 788 780 774 770 769 772 771 764 761 761 756 751 748 746 745 746 744 741 740 741 740 739 739 737 736 734 733 732 731 731 731 731 732 732 733 735 737 739 741 743 745 747 749 750 752 753 754 756 758 761 763 764 766 768 771 773 776 779 781 784 787 790 792 794 796 797 800 802 804 806 807 809 810 812 813 815 817 819 820 822 824 825
810 813 814 813 812 812 810 801 792 794 799 800 802 800 795 789 782 776 769 766 767 766 763 761 759 753 747 747 748 746 744 743 740 738 739 739 738 737 735 734 733 731 731 730 730 730 730 731 731 732 734 736 739 741 743 745 746 748 749 751 752 753 754 756 758 759 761 763 765 767 769 772 775 777 780 783 786 788 791 793 795 797 800 801 803 805 806 808 810 812 814 815 817 819 821 822 824
811 815 815 814 814 810 804 797 790 793 801 800 797 795 791 788 782 774 766 761 761 763 763 760 753 748 747 749 748 745 743 740 738 737 738 738 737 737 735 733 732 730 730 730 730 730 731 732 732 732 734 736 738 740 742 744 746 747 748 749 749 750 751 753 754 756 757 759 761 763 766 768 771 773 776 779 782 784 787 789 791 794 797 798 800 802 803 806 808 810 811 813 815 817 819 820 822
817 819 819 816 816 809 799 794 790 795 803 798 792 791 788 786 781 772 764 759 761 762 760 755 749 746 748 749 746 744 742 739 737 738 737 737 737 736 735 733 731 730 729 729 729 730 731 732 733 733 735 736 738 739 741 742 744 746 747 747 747 748 750 750 751 752 754 755 757 759 762 765 767 770 772 775 777 780 782 785 787 790 793 796 798 799 801 803 805 807 809 812 813 815 817 819 820
817 819 818 816 814 807 797 794 793 798 805 798 790 792 789 783 775 765 761 762 761 757 753 751 749 749 748 747 745 743 742 740 739 739 738 738 738 737 735 734 732 731 730 729 729 729 730 731 732 732 734 735 737 738 740 741 742 744 745 746 747 748 749 748 749 749 750 752 753 756 759 761 764 766 769 772 775 777 778 780 783 786 789 793 795 798 799 801 803 804 807 809 812 814 815 817 819
815 817 820 819 810 801 796 794 797 804 805 795 791 796 789 775 765 758 758 761 756 749 748 751 752 751 748 747 747 745 744 744 744 743 743 743 742 739 737 735 734 732 731 730 729 729 729 730 731 731 732 733 734 736 738 740 741 742 744 745 747 748 748 748 749 749 749 750 752 754 756 759 761 764 766 769 772 773 775 777 779 783 786 789 792 795 797 798 800 802 804 806 809 812 814 815 816
815 815 818 815 803 802 802 796 800 803 800 798 797 793 780 764 758 757 756 755 750 748 750 752 752 751 750 749 749 748 748 750 751 750 751 749 745 741 739 738 736 733 732 731 729 728 729 730 730 730 731 732 733 734 735 738 740 741 743 745 746 749 749 750 750 750 750 750 751 753 755 757 759 761 764 766 767 769 772 774 777 779 782 785 788 791 792 794 796 798 800 802 805 808 811 813 814
810 812 813 806 798 801 800 796 801 799 795 801 796 782 768 758 757 754 751 750 748 749 750 750 751 751 751 750 749 751 753 755 757 757 756 751 746 744 744 743 740 738 736 734 731 730 730 730 729 729 730 731 732 733 734 736 738 740 743 745 747 749 750 752 753 753 754 754 754 755 756 757 759 761 762 764 765 767 769 771 773 776 778 781 784 786 788 790 792 794 797 799 801 803 806 809 811
806 805 803 800 797 798 797 799 807 801 796 799 795 788 774 759 756 753 749 747 743 745 747 748 750 751 751 751 753 756 758 759 760 760 757 752 751 751 749 747 745 743 741 738 735 733 733 732 730 729 729 730 732 733 735 736 738 740 742 744 746 748 749 751 753 754 756 756 757 757 758 759 761 762 762 763 765 766 767 769 770 772 775 777 780 783 785 787 789 791 793 796 798 800 803 806 808
807 802 800 800 799 801 803 805 808 802 796 797 799 798 782 762 757 755 750 746 742 743 746 749 751 752 753 756 760 763 763 762 762 761 760 758 757 755 753 752 751 749 746 743 740 737 737 734 730 729 730 731 732 733 734 736 737 739 740 742 744 745 746 747 749 751 752 754 755 756 757 758 760 762 762 763 765 766 767 768 769 770 772 773 775 778 780 782 785 787 790 793 795 798 800 801 803
806 805 806 804 802 805 807 807 806 802 799 800 800 799 789 771 761 753 748 747 746 745 746 749 751 752 757 764 767 766 767 767 767 767 766 765 763 761 759 758 756 754 751 746 742 741 740 735 729 729 732 733 733 734 735 736 738 739 740 741 743 743 744 745 746 747 749 750 752 753 755 756 758 760 761 762 763 764 765 767 768 769 770 770 771 773 774 777 781 784 787 789 792 794 796 798 799
805 810 811 807 807 808 807 806 803 802 803 799 796 800 793 774 760 755 754 755 752 746 744 748 752 757 763 769 769 769 772 773 773 773 772 771 769 767 765 763 760 757 753 749 747 746 741 732 728 731 734 735 735 735 736 737 738 740 741 742 743 743 744 745 745 746 747 748 749 750 752 754 755 757 759 761 761 762 762 764 765 767 768 768 769 770 771 773 776 778 781 784 786 789 791 794 795
809 814 812 810 812 812 810 807 801 803 805 795 791 795 789 771 758 758 762 759 751 747 746 745 752 762 768 770 772 774 777 778 778 777 776 775 773 772 769 766 762 759 756 754 750 746 738 729 729 734 738 739 738 738 738 738 739 741 742 742 743 744 744 745 745 746 746 747 748 748 749 751 752 753 756 758 760 761 762 762 763 764 765 766 767 768 768 769 771 774 776 778 780 783 786 789 790
815 812 807 808 811 810 809 806 802 805 798 785 782 784 786 779 759 751 758 757 751 751 749 747 755 767 772 774 777 780 781 780 780 780 779 778 776 774 770 766 763 761 758 755 750 745 738 732 734 739 742 742 741 740 740 740 741 741 742 743 743 744 745 745 745 745 746 746 747 747 747 748 749 750 752 754 756 759 761 761 762 762 763 763 764 765 765 766 767 769 772 774 775 777 780 783 785
815 808 805 807 806 804 807 805 806 806 792 783 784 781 786 782 761 750 753 753 754 756 752 751 762 773 776 780 783 783 784 783 782 781 779 777 775 771 769 766 764 762 758 755 752 748 742 739 741 744 746 746 744 743 742 742 743 743 743 744 744 745 745 745 745 745 745 745 746 747 747 747 747 747 748 749 751 753 756 758 760 762 762 762 762 763 763 764 765 766 768 769 770 772 774 777 779
812 808 810 813 806 803 806 802 803 799 785 788 793 788 786 773 754 751 748 746 755 761 760 762 770 779 782 786 788 786 786 785 782 782 779 776 774 772 771 769 767 765 762 761 758 753 749 747 748 749 750 750 748 746 745 744 744 744 744 745 745 745 746 746 745 745 745 745 746 746 746 745 745 744 744 744 745 747 750 753 756 758 760 761 761 762 763 763 763 764 764 765 766 767 768 770 772
809 805 807 810 806 809 810 803 805 798 784 790 795 789 787 769 748 746 746 751 764 769 772 775 779 785 787 788 790 788 787 786 784 783 781 779 778 776 775 774 772 770 769 766 763 760 756 754 754 753 754 754 752 750 747 746 746 746 746 746 746 746 745 746 745 745 745 745 745 745 745 745 744 742 741 740 741 743 745 747 750 753 756 758 760 761 762 762 763 763 763 764 764 764 764 766 768
803 798 799 800 796 802 805 796 795 787 778 790 800 790 779 764 750 750 755 763 772 776 779 782 785 788 790 790 790 789 788 787 785 784 783 782 781 780 778 777 776 774 772 769 767 764 761 760 759 758 758 756 755 752 750 748 747 747 747 747 747 746 745 745 745 744 744 744 744 744 744 744 743 742 741 740 739 739 740 742 745 748 751 754 756 758 760 761 761 761 762 762 762 763 763 764 766
802 802 801 798 787 787 791 786 782 782 781 786 791 780 762 749 743 748 761 770 776 782 783 784 789 790 790 790 790 790 790 790 788 786 786 785 783 781 780 779 778 776 774 772 770 768 766 765 764 762 761 759 757 755 752 750 749 749 749 749 747 745 744 744 744 744 743 742 742 742 742 742 742 742 741 740 739 738 738 739 740 742 745 749 752 755 757 758 758 758 758 759 760 761 762 762 763
800 805 797 791 786 783 786 786 782 788 791 778 770 766 755 747 740 741 760 773 778 786 787 788 792 790 790 792 792 793 793 792 791 789 787 787 785 783 782 781 780 778 777 775 773 772 770 769 767 765 763 761 759 757 755 753 751 751 751 749 746 744 744 744 743 743 742 741 740 739 740 740 740 740 740 739 739 738 737 737 737 739 741 744 747 750 753 755 756 755 755 755 756 757 759 759 760
796 798 790 786 790 788 790 796 794 793 791 774 763 763 758 756 749 744 758 772 778 787 790 791 793 792 793 795 796 797 795 794 793 790 789 788 786 785 783 782 782 780 779 777 775 774 773 772 770 767 765 763 761 759 757 755 753 752 751 748 745 744 743 743 742 742 741 740 739 738 738 737 737 737 738 738 738 737 736 735 735 736 737 740 742 745 748 751 753 753 752 752 752 753 755 755 756
794 794 793 792 795 791 788 799 803 796 791 780 768 763 759 757 749 738 748 766 778 787 791 792 794 795 797 798 798 799 797 796 794 792 791 789 787 786 784 783 783 782 780 778 776 774 772 771 769 766 765 763 761 759 756 755 753 752 751 749 747 745 744 743 742 741 740 739 738 737 736 735 735 735 735 735 735 735 735 734 734 734 734 736 738 741 744 746 748 749 749 749 749 749 751 751 752
798 797 797 797 797 794 790 795 797 792 790 784 774 766 756 748 742 738 748 766 777 784 789 793 797 798 799 800 800 799 798 797 795 793 792 789 788 787 785 785 784 783 781 778 776 774 772 770 767 763 762 759 758 756 754 754 753 753 752 751 750 748 746 745 743 741 740 738 737 736 734 734 733 733 733 732 732 732 732 732 732 732 732 733 735 737 740 742 743 744 744 744 744 745 746 747 748
792 793 794 794 794 797 797 794 789 788 788 782 778 771 753 747 755 756 762 775 780 783 790 795 798 799 799 799 799 799 797 796 794 792 790 789 788 787 786 786 784 782 780 778 777 775 773 771 768 765 763 760 757 756 754 754 754 753 752 751 750 748 747 745 743 742 740 739 737 735 733 732 731 731 731 731 730 729 729 729 729 729 730 731 732 734 736 738 740 740 739 739 739 739 740 742 744
783 786 788 786 786 794 801 794 781 778 779 776 778 770 753 758 773 771 773 782 785 788 793 796 799 800 799 799 798 797 796 795 794 792 790 789 788 786 785 783 781 780 779 778 778 777 775 773 770 768 765 763 760 758 756 755 754 753 752 750 749 747 746 744 742 741 740 739 737 735 733 731 730 729 729 729 728 727 726 726 725 725 726 728 729 731 733 735 736 736 736 734 733 733 734 736 738